Home   Weather   Bentonville   Past weeks

Flag for USA Past Weather in Bentonville, Arkansas, USA — Yesterday and Last 2 Weeks

Now
53 °F

Mostly cloudy.


Feels Like: 50 °F
Forecast: 38 / 52 °F
Wind: 10 mph from East

Location: Rogers Weather Reporting Station

Current Time: Jan 21, 2017 at 7:52:45 pm

Latest Report: Jan 21, 2017 at 6:58 pm


Visibility: 10 mi

Pressure: 29.46 "Hg

Humidity: 89%

Dew Point: 50 °F

Location of BentonvilleLocation

Past Weather in Bentonville — Graph

°F

Bentonville Temperature Yesterday

Maximum temperature yesterday: 65 °F (at 2:58 pm)
Minimum temperature yesterday: 41 °F (at 1:30 am)
Average temperature yesterday: 53 °F

High & Low Weather Summary for the Past Weeks

 TemperatureHumidityPressure
High72 °F (Jan 11, 1:58 pm)100% (Jan 13, 9:24 am)30.73 "Hg (Jan 13, 9:24 am)
Low4 °F (Jan 7, 4:58 am)24% (Jan 8, 12:58 pm)29.46 "Hg (Jan 21, 2:58 pm)
Average43 °F81%30.11 "Hg
* Reported Jan 6 5:58 pm — Jan 21 5:58 pm, Bentonville, Weather by CustomWeather, © 2017

Note: Actual official high and low records may vary slightly from our data, if they occured in-between our weather recording intervals... More about our weather records

Advertising

Bentonville Weather History for the Previous 24 Hours

Scroll right to see more
 ConditionsComfort  
Time TempWeatherWind HumidityBarometerVisibility
5:58 pm
Sat, Jan 21
55 °FRain. Mostly cloudy.12 mph83%29.49 "Hg10 mi
4:58 pm59 °FLight rain. Overcast.3 mph69%29.48 "Hg10 mi
3:58 pm62 °FLight rain. Overcast.No wind56%29.46 "Hg10 mi
2:58 pm64 °FOvercast.7 mph52%29.46 "Hg10 mi
1:58 pm65 °FSunny.7 mph49%29.46 "Hg10 mi
12:58 pm64 °FSunny.13 mph47%29.49 "Hg10 mi
11:58 am63 °FSunny.6 mph47%29.54 "Hg10 mi
10:58 am60 °FSunny.10 mph49%29.58 "Hg10 mi
9:58 am59 °FSunny.9 mph51%29.57 "Hg10 mi
8:58 am54 °FSunny.7 mph62%29.57 "Hg10 mi
7:58 am48 °FSunny.5 mph71%29.56 "Hg10 mi
6:58 am47 °FClear.8 mph71%29.55 "Hg10 mi
5:58 am48 °FClear.8 mph66%29.55 "Hg10 mi
4:58 am52 °FClear.10 mph59%29.55 "Hg10 mi
3:58 am50 °FClear.10 mph63%29.54 "Hg10 mi
2:58 am53 °FClear.8 mph59%29.55 "Hg10 mi
1:58 am54 °FClear.13 mph59%29.54 "Hg10 mi
12:58 am56 °FClear.14 mph55%29.55 "Hg10 mi
11:58 pm
Fri, Jan 20
55 °FClear.13 mph57%29.56 "Hg10 mi
10:58 pm56 °FClear.15 mph58%29.56 "Hg10 mi
9:58 pm57 °FClear.15 mph53%29.57 "Hg10 mi
8:58 pm57 °FClear.15 mph53%29.57 "Hg10 mi
7:58 pm57 °FClear.13 mph51%29.56 "Hg10 mi
Weather by CustomWeather, © 2017

See weather overviewHow to use our weather pages